DECAYED

STARLINK-1921, 46752 (Decayed)

Orbit data source: Space-Track

STARLINK-1921, 46752 was a payload satellite owned by SpaceX/Seattle (US) in LEO that was launched on Sat, 24 Oct 2020 UTC via an FALCON 9 launch vehicle from the Air Force Eastern Test Range (AFETR). Payload-class satellites include a variety of spacecraft equipped with specific instruments for various scientific and technological missions. These include communications satellites like Starlink; space stations such as the ISS; scientific satellites like the Hubble; Earth observation satellites from companies like Planet Labs, Umbra, and HawkEye 360; GPS; miniature CubeSats for education and research; and military/defense satellites.

Not visible in the next 10 days
Identifier
46752, 2020-074P
Orbit
Decayed
Country
Flag of USUS
Related business
Manufacturer
SpaceX/Seattle
Mission
Decayed Commercial Communications
Bus & Motor
STARLINK, Unknown motor
Mass
260 kg wet, ~248 kg dry
Launch date (UTC)
Icon of a cake. It is the launch day of the satellite!2020-10-24 (5 years ago)
Launch vehicle
FALCON 9
Launch site
Air Force Eastern Test Range (AFETR)
Object type
Payload
Rocket body
Debris
Shape & HBR
Box + 1 Pan, 10.1 m
Radar Cross Section
13.562 m², Large (>1 m²)

Expand to show TLE details & history
Last TLE update: 9 months ago

TLE from 9 months ago
0 STARLINK-1921
1 46752U 20074P   25038.02061021  .10215405  12379-4  62186-3 0  9997
2 46752  53.0340 259.6871 0007084 260.0060 272.3003 16.41354407237578
Epoch: 2025-02-07T00:29Z
TLE epoch observation values (Epoch: 2025-02-07T00:29:40.722Z)
Latitude
6.16168°
Longitude
-69.75503°
Altitude
162.356 km
Speed
7.811 km/s
True Right ascension
05h 00m 12s
True Declination
6° 07' 18"
Sunlit
Object was in full shadow at epoch
Visualization orbit readout
Latitude
Unknown
Longitude
Unknown
Altitude
Unknown
Speed
Unknown
Apparent Right ascension
Unknown
Apparent Declination
Unknown
Sunlit
N/A
Visualization observer readout
Local Sidereal Time
04:15:39
Azimuth
Unknown
Elevation
Unknown
Doppler factor
Unknown
Orbital elements
Apogee altitude
167.125 km
Perigee altitude
157.858 km
Semi-major axis
6,540.629 km
Eccentricity
0.00071
Inclination
53.034°
RAAN
259.6871°
Arg. of periapsis
260.006°
True anomaly
272.21919°
Mean anomaly
272.3003°
Eccentric anomaly
272.25974°
Mean motion
4.10312 °/min
Orbital period
87.74 mins
BSTAR
0.00062186
Loading maneuver chart data...
Computing Atmospheric mass density...
Loading historical data...
Loading historical data...
Loading historical data...
Loading historical data...
Loading historical data...
Loading historical data...
Loading historical data...

Documentation

Showing up to 5 results
|